[[{"header":{"parameterUnit":"m.s-1","parameterCategory":1,"la1":30.2991,"la2":30.254,"lo1":-89.0895,"lo2":-89.0444,"dy":0.0017,"dx":0.0017,"nx":28,"ny":28,"refTime":"2024-09-03T21:00:00:Z","depth":0,"parameterNumber":2,"parameterNumberName":"U-component_of_WINDS"},"data":[0,0,0,0,0,0,0,0,0,0,0,0,0,0,0,0,0,0,0,0,0,0,0,0,0,0,0,0,0,0,0,0,0,0,0,0,0,0,0,0,0,0,0,0,0,0,0,0,0,0,0,0,0,0,0,0,0,0,-7.1193,-7.1194,0,-7.1279,-7.128,-7.1281,-7.1075,-7.1069,-7.1062,-7.1056,-7.1144,-7.1153,-7.1161,0,0,0,0,0,0,0,0,0,0,0,0,0,-7.0849,-7.0856,-7.1192,-7.1194,-7.1195,-7.1279,-7.128,-7.1281,-7.1077,-7.1069,-7.1061,-7.1053,-7.1142,-7.1152,-7.1162,0,0,0,0,0,0,0,0,0,0,0,0,0,-7.0973,-7.0859,-7.1192,-7.1103,-7.1095,-7.1279,-7.128,-7.1282,-7.1078,-7.1068,-7.1059,-7.1049,-7.1138,-7.1151,-7.1163,-7.1437,0,0,-7.1202,-7.1207,0,0,0,0,0,0,0,0,-7.0967,-7.0986,-7.1115,-7.1109,-7.1101,-7.1156,-7.1191,-7.1334,-7.1081,-7.1085,-7.1056,-7.1045,-7.1156,-7.1167,-7.1205,-7.1441,-7.1445,-7.1203,-7.1211,-7.1216,-7.122,0,0,0,0,0,0,0,-7.0958,-7.0981,-7.1227,-7.1117,-7.1109,-7.1058,-7.1065,-7.1217,-7.1174,-7.1084,-7.1069,-7.1082,-7.1151,-7.1193,-7.1205,-7.1447,-7.1203,-7.1214,-7.1222,-7.1227,-7.1915,-7.1925,0,0,0,0,0,0,-7.0961,-7.0975,-7.1224,-7.1229,-7.1008,-7.1072,-7.108,-7.1149,-7.1172,-7.1166,-7.109,-7.1072,-7.1176,-7.1191,-7.1208,-7.1533,-7.1216,-7.1228,-7.1235,-7.1904,-7.1917,-7.1929,0,0,0,0,0,0,-7.0955,-7.0985,-7.122,-7.1098,-7.1124,-7.1088,-7.1168,-7.1156,-7.1197,-7.1177,-7.1168,-7.1142,-7.1169,-7.119,-7.1382,-7.1533,-7.1234,-7.1245,-7.1892,-7.1908,-7.1923,-7.2184,0,0,0,0,0,0,-7.0946,-7.0984,-7.1088,-7.1102,-7.1132,-7.1395,-7.1177,-7.1164,-7.122,-7.1197,-7.1223,-7.1218,-7.1163,-7.1365,-7.1395,-7.1545,-7.1255,-7.1878,-7.1899,-7.1918,-7.2162,-7.2207,-7.2246,0,0,0,0,0,-7.0934,-7.1157,-7.1094,-7.1126,-7.1261,-7.1404,-7.1421,-7.1353,-7.1233,-7.1337,-7.1324,-7.1217,-7.1511,-7.1386,-7.1418,-7.1574,-7.1868,-7.1893,-7.1916,-7.2143,-7.2198,-7.2245,0,0,0,0,0,0,-7.1161,-7.1158,-7.1088,-7.1322,-7.1365,-7.1369,-7.1499,-7.1413,-7.1491,-7.1466,-7.1378,-7.1386,-7.1596,-7.1603,-7.1465,-7.1842,-7.1669,-7.1701,-7.183,-7.1882,-7.1923,-7.1919,-7.1265,0,0,0,0,0,-7.1238,-7.1355,-7.1345,-7.1553,-7.1578,-7.1536,-7.1595,-7.1539,-7.158,-7.1597,-7.1598,-7.1641,-7.1743,-7.1812,-7.1905,-7.2161,-7.2165,-7.2284,-7.2326,-7.236,-7.239,-7.2528,-7.2582,-7.2008,-7.2008,-7.2007,0,0,-7.14,-7.1412,-7.1491,-7.1599,-7.1626,-7.1749,-7.1552,-7.169,-7.1781,-7.1617,-7.1801,-7.1803,-7.1845,-7.2072,-7.2172,-7.2085,-7.2549,-7.2391,-7.2418,-7.2429,-7.2558,-7.2613,-7.2661,-7.2024,-7.2021,-7.2019,0,0,-7.1757,-7.1777,-7.1954,-7.1985,-7.2028,-7.1998,-7.2041,-7.2058,-7.2054,-7.2236,-7.2117,-7.2223,-7.24,-7.2436,-7.2478,-7.285,-7.2756,-7.2882,-7.3103,-7.3239,-7.3284,-7.3324,-7.346,-7.3509,-7.2911,-7.2912,-7.2912,0,-7.1952,-7.2133,-7.2056,-7.2204,-7.2256,-7.2113,-7.2293,-7.2326,-7.2398,-7.2437,-7.2338,-7.2559,-7.2577,-7.2811,-7.2903,-7.2939,-7.2987,-7.2881,-7.3284,-7.3323,-7.3359,-7.3488,-7.3539,-7.2927,-7.2926,-7.2924,-7.2922,0,-7.2373,-7.25,-7.2638,-7.2712,-7.2779,-7.2942,-7.2889,-7.2966,-7.2905,-7.2886,-7.3074,-7.3091,-7.3185,-7.3236,-7.3176,-7.3463,-7.3408,-7.3298,-7.3123,-7.343,-7.355,-7.3599,-7.295,-7.2944,-7.2939,-7.2935,0,0,-7.2878,-7.2907,-7.2959,-7.2992,-7.303,-7.3127,-7.3283,-7.3376,-7.3446,-7.3499,-7.3629,-7.3783,-7.3682,-7.3729,-7.3672,-7.3791,-7.4089,-7.3666,-7.3666,-7.3748,-7.4409,-7.4495,-7.4553,-7.4025,-7.4034,-7.4041,-7.4407,0,-7.3234,-7.3504,-7.3439,-7.3707,-7.3825,-7.3692,-7.3828,-7.3866,-7.3852,-7.395,-7.3933,-7.4046,-7.3902,-7.393,-7.4041,-7.403,-7.4222,-7.4002,-7.4147,-7.4154,-7.4145,-7.4615,-7.4706,-7.505,-7.4453,-7.4461,-7.4466,0,-7.3686,-7.3759,-7.404,-7.406,-7.4106,-7.4231,-7.4312,-7.4407,-7.4447,-7.4428,-7.4483,-7.4403,-7.4558,-7.4379,-7.4593,-7.4445,-7.45,-7.4503,-7.4515,-7.4529,-7.4332,-7.4646,-7.5158,-7.5212,-7.4539,-7.4533,-7.4528,0,-7.4031,-7.4199,-7.4389,-7.442,-7.4448,-7.4539,-7.4554,-7.4584,-7.4646,-7.4716,-7.4755,-7.4842,-7.4891,-7.4961,-7.4907,-7.4781,-7.5131,-7.4947,-7.5121,-7.5124,-7.5204,-7.5201,-7.5737,-7.5234,-7.5233,-7.5232,-7.5231,0,-7.4438,-7.4616,-7.4545,-7.4662,-7.4857,-7.478,-7.4976,-7.4975,-7.5004,-7.5119,-7.5007,-7.5118,-7.5038,-7.5142,-7.51,-7.5285,-7.5307,-7.5297,-7.5285,-7.531,-7.5312,-7.5348,-7.5324,-7.5246,-7.5243,-7.524,-7.5238,0,-7.4858,-7.4817,-7.5016,-7.5026,-7.5033,-7.5177,-7.5185,-7.5294,-7.5271,-7.5419,-7.5449,-7.5414,-7.5531,-7.5483,-7.5605,-7.5577,-7.5816,-7.5769,-7.5803,-7.5793,-7.5972,-7.5958,-7.6553,-7.6629,-7.6074,-7.6079,-7.6084,0,-7.5123,-7.5257,-7.5281,-7.5351,-7.5375,-7.5488,-7.555,-7.5479,-7.5548,-7.5605,-7.5709,-7.5815,-7.5898,-7.609,-7.6076,-7.6169,-7.6127,-7.6329,-7.614,-7.6162,-7.6135,-7.6129,-7.6144,-7.6369,-7.6375,-7.638,-7.6384,0,-7.5598,-7.5571,-7.5665,-7.5755,-7.5832,-7.5898,-7.5954,-7.6017,-7.5948,-7.6032,-7.6151,-7.6215,-7.634,-7.6449,-7.6532,-7.6547,-7.6457,-7.6443,-7.6489,-7.6519,-7.6535,-7.6532,-7.5911,-7.6431,-7.6426,-7.6423,-7.642,-7.6418,-7.5951,-7.6065,-7.6101,-7.621,-7.6245,-7.63,-7.6405,-7.6395,-7.6493,-7.6592,-7.6542,-7.6681,-7.6718,-7.6821,-7.6849,-7.6956,-7.6877,-7.6943,-7.696,-7.6979,-7.7005,-7.6514,-7.697,-7.6969,-7.6968,-7.6967,-7.6966,0,-7.6423,-7.644,-7.6542,-7.6625,-7.6711,-7.6617,-7.6674,-7.6753,-7.6877,-7.6919,-7.7003,-7.714,-7.7245,-7.7239,-7.7336,-7.7423,-7.7384,-7.7451,-7.7446,-7.7452,-7.7068,-7.702,-7.7482,-7.7482,-7.7482,-7.7481,-7.7481,-7.7481,-7.668,-7.6869,-7.6847,-7.7053,-7.7067,-7.7203,-7.7245,-7.7296,-7.733,-7.7489,-7.7576,-7.7571,-7.7595,-7.7692,-7.7785,-7.778,-7.7822,-7.7907,-7.7887,-7.7529,-7.7479,-7.743,-7.7385,-7.7915,-7.7916,-7.8263,-7.8266,-7.8268]},{"header":{"parameterUnit":"m.s-1","parameterCategory":1,"la1":30.2991,"la2":30.254,"lo1":-89.0895,"lo2":-89.0444,"dy":0.0017,"dx":0.0017,"nx":28,"ny":28,"refTime":"2024-09-03T21:00:00:Z","depth":0,"parameterNumber":3,"parameterNumberName":"V-component_of_WINDS"},"data":[0,0,0,0,0,0,0,0,0,0,0,0,0,0,0,0,0,0,0,0,0,0,0,0,0,0,0,0,0,0,0,0,0,0,0,0,0,0,0,0,0,0,0,0,0,0,0,0,0,0,0,0,0,0,0,0,0,0,-4.0886,-4.0884,0,-4.0696,-4.0693,-4.0691,-4.0511,-4.0509,-4.0507,-4.0505,-4.0306,-4.0303,-4.03,0,0,0,0,0,0,0,0,0,0,0,0,0,-4.1087,-4.1085,-4.0886,-4.0884,-4.0881,-4.0696,-4.0693,-4.0691,-4.0512,-4.0509,-4.0506,-4.0504,-4.0307,-4.0303,-4.03,0,0,0,0,0,0,0,0,0,0,0,0,0,-4.0959,-4.1084,-4.0887,-4.077,-4.0758,-4.0697,-4.0693,-4.069,-4.0512,-4.0509,-4.0506,-4.0503,-4.0308,-4.0304,-4.0299,-4.0337,0,0,-4.0284,-4.0282,0,0,0,0,0,0,0,0,-4.0966,-4.0952,-4.0789,-4.0778,-4.0764,-4.0624,-4.0691,-4.0572,-4.0513,-4.0605,-4.0505,-4.0501,-4.0414,-4.0401,-4.0372,-4.0328,-4.0319,-4.0284,-4.0281,-4.0279,-4.0278,0,0,0,0,0,0,0,-4.0975,-4.0959,-4.0811,-4.0787,-4.0772,-4.0724,-4.0703,-4.0668,-4.0531,-4.0597,-4.0584,-4.0564,-4.0407,-4.0377,-4.0366,-4.0316,-4.0284,-4.028,-4.0277,-4.0275,-4.0286,-4.0289,0,0,0,0,0,0,-4.1003,-4.0967,-4.0817,-4.0805,-4.0859,-4.0724,-4.0699,-4.0672,-4.0531,-4.0506,-4.0567,-4.0556,-4.0387,-4.0372,-4.0359,-4.0389,-4.0279,-4.0275,-4.0272,-4.0283,-4.0287,-4.029,0,0,0,0,0,0,-4.1008,-4.0991,-4.0824,-4.0882,-4.0857,-4.0724,-4.0695,-4.067,-4.0641,-4.0508,-4.0482,-4.0562,-4.0384,-4.0365,-4.0342,-4.038,-4.0272,-4.0268,-4.0279,-4.0284,-4.0289,-4.0455,0,0,0,0,0,0,-4.1015,-4.0994,-4.101,-4.0884,-4.0855,-4.0815,-4.0697,-4.0669,-4.0633,-4.0617,-4.0497,-4.0474,-4.038,-4.0351,-4.0338,-4.0372,-4.0264,-4.0275,-4.0281,-4.0287,-4.0446,-4.0465,-4.0481,0,0,0,0,0,-4.1022,-4.1064,-4.1011,-4.0994,-4.0872,-4.0817,-4.08,-4.0692,-4.0637,-4.065,-4.0563,-4.0478,-4.0379,-4.035,-4.0334,-4.0367,-4.0272,-4.028,-4.0287,-4.0437,-4.0461,-4.0481,0,0,0,0,0,0,-4.1198,-4.1046,-4.0985,-4.0989,-4.0917,-4.0787,-4.08,-4.0722,-4.0664,-4.0651,-4.0518,-4.0492,-4.0484,-4.0423,-4.0394,-4.0393,-4.0313,-4.0318,-4.0433,-4.0455,-4.0472,-4.0487,-4.026,0,0,0,0,0,-4.1237,-4.1207,-4.1075,-4.109,-4.1058,-4.0936,-4.0908,-4.083,-4.075,-4.0719,-4.0631,-4.0556,-4.0506,-4.0477,-4.0425,-4.0436,-4.0404,-4.045,-4.0468,-4.0483,-4.0488,-4.0484,-4.0501,-4.0314,-4.0314,-4.0314,0,0,-4.1317,-4.123,-4.122,-4.1123,-4.1059,-4.1028,-4.0911,-4.0885,-4.086,-4.0714,-4.0687,-4.062,-4.0526,-4.0519,-4.0511,-4.0468,-4.0533,-4.0492,-4.0506,-4.0502,-4.0493,-4.0511,-4.0527,-4.0319,-4.0318,-4.0317,0,0,-4.1447,-4.1381,-4.1384,-4.1321,-4.1224,-4.1142,-4.1143,-4.1023,-4.0973,-4.0943,-4.0832,-4.0799,-4.0719,-4.0655,-4.0612,-4.0713,-4.063,-4.07,-4.0793,-4.0791,-4.0805,-4.0818,-4.085,-4.0864,-4.0705,-4.0706,-4.0706,0,-4.1559,-4.1511,-4.1395,-4.1374,-4.1333,-4.12,-4.1199,-4.1144,-4.1035,-4.1008,-4.0961,-4.0854,-4.0782,-4.0756,-4.078,-4.0751,-4.0744,-4.0713,-4.0813,-4.0824,-4.0834,-4.0863,-4.0876,-4.0714,-4.0713,-4.0713,-4.0712,0,-4.165,-4.1618,-4.1632,-4.153,-4.149,-4.148,-4.136,-4.1333,-4.1258,-4.118,-4.1148,-4.1056,-4.0981,-4.0969,-4.0896,-4.093,-4.0906,-4.0838,-4.0755,-4.0863,-4.0888,-4.0898,-4.0727,-4.0724,-4.0721,-4.0719,0,0,-4.1888,-4.172,-4.1727,-4.1677,-4.1558,-4.153,-4.1511,-4.1438,-4.1415,-4.1344,-4.1322,-4.1255,-4.119,-4.1142,-4.1059,-4.1058,-4.1138,-4.0988,-4.0984,-4.1017,-4.1165,-4.1216,-4.1231,-4.1082,-4.1084,-4.1085,-4.1172,0,-4.1997,-4.1958,-4.1851,-4.1844,-4.1809,-4.168,-4.1663,-4.1587,-4.1512,-4.147,-4.1385,-4.1339,-4.1258,-4.1227,-4.122,-4.113,-4.1165,-4.1123,-4.1058,-4.1057,-4.1084,-4.1244,-4.1299,-4.1385,-4.1181,-4.1183,-4.1184,0,-4.2119,-4.2055,-4.2045,-4.1923,-4.1905,-4.1892,-4.1813,-4.1776,-4.1685,-4.163,-4.1574,-4.1482,-4.1451,-4.1375,-4.1328,-4.1301,-4.1268,-4.1219,-4.122,-4.1208,-4.1126,-4.1235,-4.141,-4.1423,-4.1199,-4.1198,-4.1197,0,-4.229,-4.2201,-4.2182,-4.2143,-4.2002,-4.1995,-4.1936,-4.1842,-4.1803,-4.1733,-4.1705,-4.1634,-4.1594,-4.1538,-4.1428,-4.1383,-4.1392,-4.1307,-4.1342,-4.1345,-4.1349,-4.135,-4.152,-4.1332,-4.1332,-4.1331,-4.1331,0,-4.2421,-4.2419,-4.2256,-4.2244,-4.2236,-4.2111,-4.2106,-4.2034,-4.195,-4.1919,-4.1802,-4.1775,-4.1632,-4.1587,-4.15,-4.1471,-4.1455,-4.1407,-4.1383,-4.1416,-4.1422,-4.1392,-4.1382,-4.1335,-4.1334,-4.1333,-4.1333,0,-4.2611,-4.2502,-4.2472,-4.234,-4.2306,-4.2306,-4.2191,-4.2173,-4.2089,-4.2051,-4.2035,-4.1903,-4.1844,-4.1728,-4.1637,-4.1577,-4.1567,-4.1528,-4.1599,-4.1584,-4.1624,-4.1621,-4.1778,-4.179,-4.1599,-4.1601,-4.1602,0,-4.2702,-4.2697,-4.2564,-4.2535,-4.248,-4.2436,-4.2394,-4.227,-4.2231,-4.2124,-4.2118,-4.2049,-4.1987,-4.1897,-4.1792,-4.172,-4.1676,-4.1736,-4.1664,-4.1696,-4.1672,-4.1673,-4.167,-4.1752,-4.1755,-4.1757,-4.1759,0,-4.2873,-4.2818,-4.2765,-4.2691,-4.2645,-4.2581,-4.251,-4.2493,-4.2351,-4.2313,-4.2251,-4.2203,-4.2108,-4.2039,-4.1951,-4.1885,-4.1797,-4.1782,-4.1785,-4.1818,-4.1858,-4.1833,-4.164,-4.1779,-4.1777,-4.1775,-4.1774,-4.1773,-4.3013,-4.3001,-4.2904,-4.2847,-4.278,-4.2716,-4.2691,-4.2603,-4.255,-4.2463,-4.2392,-4.2335,-4.2237,-4.2109,-4.2049,-4.2,-4.1958,-4.1964,-4.1965,-4.1968,-4.198,-4.1868,-4.1984,-4.1983,-4.1982,-4.1982,-4.1981,0,-4.3175,-4.3106,-4.3055,-4.2959,-4.2912,-4.2834,-4.275,-4.2716,-4.2668,-4.2585,-4.2526,-4.2452,-4.2384,-4.2272,-4.2193,-4.2175,-4.2132,-4.2158,-4.2157,-4.2143,-4.2024,-4.2027,-4.2194,-4.2194,-4.2194,-4.2194,-4.2194,-4.2194,-4.3255,-4.3228,-4.3161,-4.3099,-4.3028,-4.2972,-4.293,-4.2868,-4.2801,-4.2724,-4.2667,-4.2594,-4.2498,-4.2411,-4.2343,-4.2311,-4.2286,-4.2325,-4.2281,-4.2172,-4.2152,-4.2133,-4.2135,-4.2322,-4.2322,-4.2402,-4.2403,-4.2404]}]]